Change the Weather History Date:

Wednesday, October 30, 2013

  Actual Average Record
Temperature  
Mean Temperature 57 °F 52 °F  
Max Temperature 62 °F 64 °F 86 °F (1927)
Min Temperature 51 °F 41 °F 22 °F (1965)
Degree Days  
Heating Degree Days 8 13  
Month to date heating degree days 264 269  
Since 1 July heating degree days 306 327  
Cooling Degree Days 0 0  
Month to date cooling degree days 39 16  
Year to date cooling degree days 1120 1089  
Growing Degree Days 6 (Base 50)    
Moisture  
Dew Point 57 °F    
Average Humidity 97    
Maximum Humidity 100    
Minimum Humidity 93    
Precipitation  
Precipitation 0.27 in 0.10 in 1.43 in (2012)
Month to date precipitation 1.23 2.57  
Year to date precipitation 37.76 36.93  
Snow  
Snow 0.00 in - - ()
Month to date snowfall T  
Since 1 September snowfall T  
Snow Depth 0.00 in    
Sea Level Pressure  
Sea Level Pressure 30.17 in    
Wind  
Wind Speed 1 mph (SSW)    
Max Wind Speed 9 mph    
Max Gust Speed 30 mph    
Visibility 4 miles    
Events Fog , Rain    
T = Trace of Precipitation, MM = Missing Value Source: NWS Daily Summary

Daily Weather History Graph

Daily Weather History Graph

Search for Another Location

Airport or City:

Trip Planner

Search our weather history database for the weather conditions in past years. The results will help you decide how hot, cold, wet, or windy it might be!

Date:

Astronomy

Oct. 30, 2013 Rise Set
Actual Time 7:50 AM EDT 6:28 PM EDT
Civil Twilight 7:23 AM EDT 6:55 PM EDT
Nautical Twilight 6:52 AM EDT 7:27 PM EDT
Astronomical Twilight 6:21 AM EDT 7:57 PM EDT
Moon 3:41 AM EDT (10/30) 4:10 PM EDT (10/30)
Length of Visible Light 11h 32m
Length of Day
10h 37m
Waning Crescent, 17% of the Moon is Illuminated
Oct 30
Waning Crescent
Nov 3
New
Nov 10
First Quarter
Nov 17
Full
Nov 25
Last Quarter

Hourly Weather History & Observations

Time (EDT) Temp. Dew Point Humidity Pressure Visibility Wind Dir Wind Speed Gust Speed Precip Events Conditions
12:54 AM 52.0 °F 50.0 °F 93% 30.21 in 10.0 mi Calm Calm - N/A   Overcast
1:54 AM 53.1 °F 51.1 °F 93% 30.20 in 10.0 mi Calm Calm - N/A   Overcast
2:54 AM 52.0 °F 51.1 °F 97% 30.19 in 10.0 mi Calm Calm - 0.01 in Rain Light Rain
3:54 AM 52.0 °F 52.0 °F 100% 30.19 in 10.0 mi Calm Calm - 0.01 in Rain Light Rain
4:34 AM 51.8 °F 51.8 °F 100% 30.19 in 6.0 mi Calm Calm - 0.01 in Rain Light Rain
4:54 AM 52.0 °F 52.0 °F 100% 30.19 in 5.0 mi Calm Calm - 0.03 in Rain Rain
5:41 AM 51.8 °F 51.8 °F 100% 30.20 in 4.0 mi Calm Calm - 0.03 in Rain Rain
5:54 AM 52.0 °F 52.0 °F 100% 30.19 in 4.0 mi NNE 3.5 mph - 0.04 in Rain Light Rain
6:26 AM 51.8 °F 51.8 °F 100% 30.19 in 1.0 mi East 4.6 mph - 0.01 in Rain Light Rain
6:54 AM 53.1 °F 53.1 °F 100% 30.19 in 1.0 mi Calm Calm - 0.05 in Rain Light Rain
7:24 AM 51.8 °F 51.8 °F 100% 30.19 in 1.0 mi Calm Calm - 0.02 in Rain Light Rain
7:37 AM 53.6 °F 53.6 °F 100% 30.19 in 0.5 mi Calm Calm - 0.05 in Fog , Rain Rain
7:54 AM 53.1 °F 53.1 °F 100% 30.19 in 0.5 mi Calm Calm - 0.08 in Fog , Rain Rain
8:54 AM 54.0 °F 54.0 °F 100% 30.19 in 0.5 mi Calm Calm - 0.04 in Fog , Rain Light Rain
9:54 AM 55.0 °F 55.0 °F 100% 30.20 in 1.5 mi Calm Calm - 0.00 in   Overcast
10:13 AM 55.4 °F 55.4 °F 100% 30.20 in 6.0 mi Calm Calm - N/A   Overcast
10:54 AM 55.9 °F 55.9 °F 100% 30.21 in 6.0 mi South 4.6 mph - N/A   Overcast
11:54 AM 59.0 °F 59.0 °F 100% 30.20 in 4.0 mi SW 5.8 mph - N/A   Overcast
11:57 AM 59.0 °F 59.0 °F 100% 30.20 in 2.0 mi SW 4.6 mph - N/A   Overcast
12:25 PM 60.8 °F 59.0 °F 94% 30.20 in 2.0 mi WSW 3.5 mph - N/A   Overcast
12:54 PM 60.1 °F 59.0 °F 96% 30.19 in 2.0 mi WSW 4.6 mph - N/A   Overcast
1:54 PM 61.0 °F 60.1 °F 97% 30.17 in 2.0 mi Calm Calm - 0.01 in Rain Light Rain
2:54 PM 61.0 °F 60.1 °F 97% 30.15 in 2.0 mi Calm Calm - 0.00 in   Overcast
3:38 PM 62.6 °F 60.8 °F 94% 30.14 in 2.0 mi Calm Calm - N/A   Overcast
3:54 PM 62.1 °F 61.0 °F 96% 30.13 in 2.0 mi ESE 3.5 mph - N/A   Overcast
3:56 PM 62.6 °F 60.8 °F 94% 30.14 in 4.0 mi Calm Calm - N/A   Overcast
4:54 PM 62.1 °F 61.0 °F 96% 30.15 in 6.0 mi Calm Calm - N/A   Overcast
5:11 PM 62.6 °F 60.8 °F 94% 30.15 in 6.0 mi Calm Calm - N/A   Overcast
5:54 PM 62.1 °F 61.0 °F 96% 30.14 in 6.0 mi NNE 3.5 mph - N/A   Overcast
6:54 PM 61.0 °F 61.0 °F 100% 30.14 in 5.0 mi Calm Calm - N/A   Overcast
7:54 PM 61.0 °F 61.0 °F 100% 30.16 in 5.0 mi Calm Calm - N/A   Overcast
8:38 PM 60.8 °F 60.8 °F 100% 30.15 in 4.0 mi Calm Calm - N/A   Overcast
8:54 PM 60.1 °F 60.1 °F 100% 30.14 in 4.0 mi Calm Calm - N/A   Overcast
9:39 PM 60.8 °F 60.8 °F 100% 30.14 in 4.0 mi Calm Calm - N/A   Overcast
9:54 PM 60.1 °F 60.1 °F 100% 30.14 in 4.0 mi Calm Calm - N/A   Overcast
10:54 PM 59.0 °F 59.0 °F 100% 30.13 in 4.0 mi Calm Calm - N/A   Overcast
11:31 PM 59.0 °F 59.0 °F 100% 30.12 in 4.0 mi Calm Calm - N/A   Overcast
11:54 PM 57.9 °F 57.9 °F 100% 30.10 in 4.0 mi Calm Calm - N/A   Overcast